Location: Rosenheim
(47.8408°N, 12.2113°E)
Time: 12:35:46
(UTC+01:00)

ISS - Pass Details

Date: 11 January 2018
Orbit: 402 x 407 km, 51.6° (Epoch: 18 January)

Event Time Altitude Azimuth Distance (km) Brightness Sun altitude
Exits shadow 05:41:18 51° 67° (ENE) 521 -3.1 -22.2°
Drops below altitude 10° 05:43:59 10° 100° (E) 1,466 0.2 -21.7°
Sets 05:46:05 0° 104° (ESE) 2,325 1.6 -21.4°
